Regional Weather Roundup
Issued by NWS

Home | Current Version | Previous Version | Graphics & Text | Print | Product List | Glossary Off
Versions: 1 2 3 4 5 6 7 8 9 10 11 12 13 14 15 16 17 18 19 20 21 22 23 24 25 26 27 28 29 30 31 32 33 34 35 36 37 38 39 40 41 42 43 44 45 46 47 48 49 50

000
ASUS43 KMKX 300420
RWRWI

WISCONSIN REGIONAL WEATHER ROUNDUP
NATIONAL WEATHER SERVICE MILWAUKEE/SULLIVAN WI
1100 PM CDT SUN MAR 29 2015

NOTE: "FAIR" INDICATES FEW OR NO CLOUDS BELOW 12,000 FEET WITH NO
SIGNIFICANT WEATHER AND/OR OBSTRUCTIONS TO VISIBILITY.

WIZ001-002-006>008-014>016-023>028-300500-
NORTHWEST WISCONSIN

CITY           SKY/WX    TMP DP  RH WIND       PRES   REMARKS
SUPERIOR ARPT  FAIR      37  26  64 SW7       29.85S WCI  31
ASHLAND        CLEAR     36  25  64 SW7       29.83R WCI  30
HAYWARD        FAIR      38  25  59 CALM      29.86R
SIREN          CLEAR     38  25  59 W6        29.90S WCI  33
CUMBERLAND     CLEAR     36  27  69 W9        29.89R WCI  29
RICE LAKE      CLEAR     40  26  56 W7        29.90R
CHETEK         CLEAR     40  27  59 W7        29.89R
LADYSMITH      PTCLDY    36  28  73 W6        29.87R WCI  31
EAU CLAIRE     CLEAR     40  25  55 W7        29.90R
MENOMONIE      CLEAR     41  27  57 W7        29.92R
NEW RICHMOND   CLEAR     36  26  65 W5        29.93S WCI  32
OSCEOLA        CLEAR     39  27  63 W7        29.95S WCI  34
$$

WIZ003>005-009-010-017-018-300500-
NORTH CENTRAL WISCONSIN

CITY           SKY/WX    TMP DP  RH WIND       PRES   REMARKS
MANITOWISH WTR PTCLDY    32  29  88 NW6       29.78R WCI  26
ARBOR VITAE    CLEAR     37  31  82 NW5       29.78S WCI  33
WOODRUFF       CLEAR     37  31  82 NW5       29.78S WCI  33
RHINELANDER    PTCLDY    35  29  78 W9        29.79R WCI  28
EAGLE RIVER    CLOUDY    35  28  75 W9        29.76R WCI  28
LAND O LAKES   CLOUDY    35  30  82 NW7       29.76R WCI  29
PHILLIPS       MOCLDY    33  29  84 CALM      29.82R
TOMAHAWK       PTCLDY    35  28  75 W7        29.82R WCI  29
MEDFORD        CLOUDY    35  30  80 W6        29.84R WCI  30
MERRILL        CLOUDY    37  31  77 NW9       29.83R WCI  30
$$

WIZ029-030-035-036-043>047-300500-
CENTRAL WISCONSIN

CITY           SKY/WX    TMP DP  RH WIND       PRES   REMARKS
WAUSAU         CLOUDY    38  31  76 NW7       29.82R WCI  33
MOSINEE        CLOUDY    36  32  87 W8        29.85R WCI  29
MARSHFIELD     MOCLDY    36  29  75 W6        29.85R WCI  31
STEVENS POINT  CLOUDY    35  30  82 W5        29.86R WCI  31
WAUPACA        PTCLDY    42  31  65 W7        29.85R
WAUTOMA        CLOUDY    36  33  88 W5        29.88R WCI  32
WISC RAPIDS    MOCLDY    35  29  78 W5        29.88R WCI  31
CAMP DOUGLAS   CLEAR     31  31  99 W8        29.89R WCI  24
$$

WIZ011>013-019>022-031-037>040-048>050-300500-
NORTHEAST WISCONSIN

CITY           SKY/WX    TMP DP  RH WIND       PRES   REMARKS
ANTIGO         PTCLDY    35  30  80 NW12      29.80R WCI  27
SHAWANO        PTCLDY    40  32  73 NW12      29.80R WCI  32
OCONTO         MOCLDY    38  32  78 W8        29.76R WCI  32
STURGEON BAY   CLEAR     37  30  75 W14G22    29.77R WCI  29
GREEN BAY      CLEAR     39  31  72 W13       29.80R WCI  31
MANITOWOC      PTCLDY    39  32  76 W14G24    29.80R WCI  31
APPLETON       PTCLDY    39  28  65 NW17G23   29.83R WCI  30
CLINTONVILLE   PTCLDY    37  30  75 NW12G20   29.81R WCI  30
OSHKOSH        MOCLDY    39  30  70 W8        29.85R WCI  33
$$

WIZ032>034-041-042-053>061-300500-
SOUTHWEST WISCONSIN

CITY           SKY/WX    TMP DP  RH WIND       PRES   REMARKS
LA CROSSE      CLEAR     45  28  51 W9        29.93R
SPARTA         CLEAR     44  26  49 W8        29.92R
VIROQUA        CLEAR     40  30  68 W10       29.92R WCI  33
BOSCOBEL       CLEAR     45  28  51 W6        29.95R
PRAIRIE DU CHI CLEAR     42  28  57 W9        29.97R
PLATTEVILLE    CLEAR     40  30  67 W8        29.95R WCI  35
$$

WIZ056-057-062-063-064-067-068-300500-
SOUTH CENTRAL WISCONSIN

CITY           SKY/WX    TMP DP  RH WIND       PRES   REMARKS
REEDSBURG      CLEAR     31  30  96 CALM      29.90R
BARABOO/DELLS  CLEAR     37  33  84 W6        29.89R WCI  33
LONE ROCK      CLEAR     45  29  53 W13       29.92R
MINERAL POINT  FAIR      41  30  65 W13       29.93R
MADISON        PTCLDY    32  30  92 CALM      29.90R
MIDDLETON      CLEAR     39  32  75 W5        29.90R
WATERTOWN      CLOUDY    37  36  93 W5        29.89R WCI  34
MONROE         CLEAR     41  32  70 W16G22    29.91R
JANESVILLE     CLEAR     37  32  81 W6        29.90R WCI  33
$$

WIZ051-052-058>065-066-070>072-300500-
SOUTHEAST WISCONSIN

CITY           SKY/WX    TMP DP  RH WIND       PRES   REMARKS
MILWAUKEE      PTCLDY    42  29  59 W8        29.88R
WAUKESHA       MOCLDY    36  32  87 W8        29.89R WCI  29
MILWAUKEE/TIMM PTCLDY    37  30  75 W7        29.88R WCI  32
RACINE         CLEAR     41  31  67 W9        29.90R
BURLINGTON     PTCLDY    34  31  90 SW6       29.90R WCI  29
KENOSHA        PTCLDY    36  33  89 W7        29.90R WCI  30
FOND DU LAC    CLOUDY    40  30  67 W9        29.86R WCI  34
SHEBOYGAN      PTCLDY    39  30  70 W14G21    29.83R WCI  31
WEST BEND      CLOUDY    39  30  70 W7G16     29.85R WCI  34
JUNEAU         CLOUDY    37  33  84 W6        29.89R WCI  33
$$

LSZ147-162-300500-
LAKE SUPERIOR

STATION/POSITION TIME  TEMP    WIND        PRES    WAVE
                       AIR SEA DIR/SP/G            HT/PER
                 (UTC) (F)     (DEG/KT/KT) (MB)    (FT/S)
DEVILS ISLAND    0400   40     260/ 15/ 17 1009.4R
PORT WING        0300   41     240/  8/ 11 1010.5
SAXON HARBOR     0300   38     220/  5/  9 1009.1R
$$

LMZ867-665-643>646-300500-
LAKE MICHIGAN

STATION/POSITION TIME  TEMP    WIND        PRES    WAVE
                       AIR SEA DIR/SP/G            HT/PER
                 (UTC) (F)     (DEG/KT/KT) (MB)    (FT/S)
NORTHPORT PIER   0300   38     290/ 10/ 18 1004.7R
SISTER BAY       0317   35     290/ 12/ 13   N/A
KEWAUNEE LAKESHO 0400   39     290/ 13/ 18 1007.2R
SHEBOYGAN LAKESH 0400   41     280/ 14/ 17 1010.7R
PORT WASHINGTON  0340   42     300/  8/ 12 1011.5R
MILWAUKEE LAKESH 0400   42     280/  9/ 12   N/A
KENOSHA   LAKESH 0400   42     290/  8/ 12 1012.5R
$$

TC  - TEMPERATURE IN CELSIUS
VSB - VISIBILITY IN STATUTE MILES
WCI - WIND CHILL INDEX
HX  - HEAT INDEX



USA.gov is the U.S. government's official web portal to all federal, state and local government web resources and services.